Regional Weather Roundup
Issued by NWS

Home | Current Version | Previous Version | Text Only | Print | Product List | Glossary Off
Versions: 1 2 3 4 5 6 7 8 9 10 11 12 13 14 15 16 17 18 19 20 21 22 23 24 25 26 27 28 29 30 31 32 33 34 35 36 37 38 39 40 41 42 43 44 45 46 47 48 49 50

618
ASUS43 KIND 091959
RWRIN

WEATHER ROUNDUP FOR INDIANA
NATIONAL WEATHER SERVICE INDIANAPOLIS IN
300 PM EST TUE FEB 09 2016

NOTE: "FAIR" INDICATES FEW OR NO CLOUDS BELOW 12,000 FEET WITH NO
SIGNIFICANT WEATHER AND/OR OBSTRUCTIONS TO VISIBILITY.

* - STATION DOES NOT REPORT WEATHER SUCH AS PRECIPITATION OR FOG.

+ - STATION NOT QUALITY CONTROLLED BY THE NATIONAL WEATHER SERVICE.
    USE DATA WITH CAUTION...ESPECIALLY DEWPOINT AND RELATIVE
    HUMIDITY OBSERVATIONS.

INZ001>003-010>013-019-020-092100-
NORTHWEST INDIANA

CITY           SKY/WX    TMP DP  RH WIND       PRES   REMARKS
RENSSELAER +   LGT SNOW  21  12  68 W16       29.83R WCI   7

$$

LMZ046-743>745-092100-
SOUTHERN LAKE MICHIGAN

STATION/POSITION TIME  TEMP    WIND        PRES    WAVE
                       AIR SEA DIR/SP/G            HT
                 (UTC) (F)     (DEG/KT/KT) (MB)    (FT)
BURNS HARBOR     1900   20     310/ 17/ 22 1009.8S
MICHIGAN CITY    1900   20     280/ 20/ 23   N/A

$$

INZ004-005-014>016-021>024-092100-
NORTH CENTRAL INDIANA

CITY           SKY/WX    TMP DP  RH WIND       PRES   REMARKS
GOSHEN         CLOUDY    25  17  72 NW20      29.72R WCI  11
SOUTH BEND     LGT SNOW  22  17  81 NW18      29.75R WCI   7

$$

INZ006>009-017-018-025>027-092100-
NORTHEAST INDIANA

CITY           SKY/WX    TMP DP  RH WIND       PRES   REMARKS
ANGOLA *+      CLOUDY    27  19  74 NW14      29.66R WCI  15
FORT WAYNE     FLURRIES  30  22  72 W12       29.70R WCI  20

$$

INZ028-029-035-036-043>045-051>053-092100-
WEST CENTRAL INDIANA

CITY           SKY/WX    TMP DP  RH WIND       PRES   REMARKS
GREENCASTLE +  LGT SNOW  21  10  63 W10       29.84R WCI  10
LAFAYETTE      LGT SNOW  20  15  81 NW12      29.83R WCI   8
TERRE HAUTE    LGT SNOW  20  13  74 NW17G23   29.88R WCI   5

$$

INZ030>032-037>040-046>048-054>057-064-065-092100-
CENTRAL INDIANA

CITY           SKY/WX    TMP DP  RH WIND       PRES   REMARKS
ANDERSON       LGT SNOW  23  19  86 W12G23    29.97  WCI  12
COLUMBUS       FLURRIES  23  18  80 W10       29.83R WCI  12
INDIANAPOLIS   LGT SNOW  22  15  75 W15       29.80R WCI   9
-EAGLE CREEK   LGT SNOW  22  15  75 W15       29.80R WCI   9
KOKOMO *+      CLOUDY    21  16  79 W21       29.77S WCI   6
MT COMFORT *+  CLOUDY    23  18  80 W22       29.79R WCI   8
SHELBYVILLE    FLURRIES  24  16  71 W17       29.79R WCI  11

$$

INZ033-034-041-042-049-050-058-059-092100-
EAST CENTRAL INDIANA

CITY           SKY/WX    TMP DP  RH WIND       PRES   REMARKS
MUNCIE         LGT SNOW  24  17  74 W17       29.75R WCI  11

$$

INZ060-061-067>069-081>083-085>088-092100-
SOUTHWEST INDIANA

CITY           SKY/WX    TMP DP  RH WIND       PRES   REMARKS
EVANSVILLE     LGT SNOW  24  15  68 W12       29.95R WCI  13
HUNTINGBURG *+ CLOUDY    21  16  79 W14       29.91R WCI   8

$$

INZ062-063-066-070>080-084-089>092-092100-
SOUTH CENTRAL AND SOUTHEAST INDIANA

CITY           SKY/WX    TMP DP  RH WIND       PRES   REMARKS
BLOOMINGTON    LGT SNOW  21  15  78 W14       29.84R WCI   8
MADISON *+     CLOUDY    25  16  68 W12G17    29.83S WCI  14
SEYMOUR +      FLURRIES  27  18  69 W18       29.84R WCI  13

$$





USA.gov is the U.S. government's official web portal to all federal, state and local government web resources and services.